Theta_e
319 318 318 319 319 319 318 318 317 316 316 315 315 315 315 315 317 318 317 315 315 314 314 313 313 314 312 311 307 315 327 329 325 315 311 308 307 303 298 298 298 295 296 298 298 300 296
318 318 318 319 319 318 318 317 316 315 315 314 314 314 315 316 317 317 316 314 314 314 313 312 313 315 310 304 316 314 317 319 314 312 311 310 308 306 301 298 297 298 297 296 297 298 299
318 318 319 318 318 317 318 316 316 315 314 314 314 315 316 317 317 317 315 314 314 313 311 312 314 314 313 310 316 313 311 310 311 313 308 309 309 304 302 299 301 298 294 295 296 297 296
318 318 318 318 316 316 317 317 315 315 314 314 316 316 316 316 316 315 314 313 313 312 313 314 315 313 307 319 314 310 309 309 311 313 311 310 310 306 302 300 299 295 295 290 296 298 299
318 318 318 318 315 316 317 317 315 316 317 316 316 315 315 314 314 314 313 313 313 314 315 316 311 311 302 319 309 310 309 309 310 311 309 310 308 301 300 293 290 292 287 290 293 299 297
318 318 318 317 315 316 317 317 316 316 315 315 315 315 314 314 314 313 312 313 315 315 315 316 316 307 312 310 309 308 308 310 309 308 306 304 300 296 294 291 286 288 289 289 291 293 295
318 318 318 316 315 317 317 317 316 315 314 315 315 315 314 314 314 313 310 308 306 305 310 301 305 308 306 305 307 305 308 308 307 304 297 301 295 291 293 295 296 296 292 291 291 296 295
317 317 316 315 315 317 317 317 315 314 314 314 314 314 314 314 314 313 309 312 308 309 298 310 311 310 310 306 303 304 309 303 302 297 300 296 292 297 299 300 298 297 293 292 295 298 294
316 316 315 313 315 317 316 316 314 314 314 313 313 314 314 314 313 310 308 313 319 319 301 304 308 306 307 308 302 302 306 304 300 297 297 293 296 301 300 297 297 295 293 292 293 295 294
315 314 313 313 315 315 314 314 314 313 313 313 313 313 312 312 309 312 309 315 317 313 291 297 302 304 307 307 301 306 306 304 301 296 297 296 301 300 298 296 296 293 298 297 295 291 285
314 314 312 312 313 314 313 313 313 313 313 313 312 313 312 313 309 314 317 322 322 312 280 299 302 310 306 303 303 303 307 306 298 297 298 295 297 297 296 296 298 296 299 296 295 290 289
314 313 312 312 313 313 312 312 312 312 312 312 312 313 311 310 309 315 323 321 310 294 281 297 302 301 299 303 302 302 303 307 305 300 298 297 300 298 297 300 299 300 298 297 295 291 283
313 313 312 312 313 313 312 312 311 311 311 312 312 313 311 320 315 322 321 307 292 283 300 295 297 301 299 298 301 301 299 297 295 291 291 297 297 299 301 297 300 297 293 283 283 281 282
313 311 312 312 313 312 312 311 310 310 311 311 312 311 313 322 324 322 312 299 288 296 296 300 299 300 297 299 299 300 297 293 297 297 292 290 288 296 300 296 293 295 292 282 281 279 282
312 311 312 312 312 311 310 306 309 310 310 311 312 312 318 320 323 317 304 290 292 296 299 298 299 295 295 298 298 297 294 293 295 296 292 291 291 298 298 298 298 295 288 294 286 283 280
312 312 312 311 311 310 306 307 308 310 311 312 312 311 308 321 320 311 300 294 299 301 302 300 294 297 292 295 295 295 295 298 298 299 298 295 288 296 298 300 299 294 296 288 285 278 279
311 312 311 311 310 306 307 308 309 310 311 311 312 300 307 322 312 302 293 297 301 304 305 300 298 296 297 294 296 295 295 298 300 299 298 296 292 291 297 293 291 293 291 291 290 284 279
310 310 310 310 308 306 306 309 309 310 310 310 307 296 315 310 294 297 295 302 301 301 305 303 302 301 298 298 297 296 296 298 302 301 293 296 291 283 291 296 297 294 293 291 281 283 281
310 310 310 310 305 306 306 309 309 309 310 309 303 305 316 307 288 288 300 302 303 301 301 301 301 302 302 298 294 298 298 302 301 298 295 295 289 282 287 293 295 291 294 295 290 284 282
309 309 309 306 306 306 306 308 309 309 310 312 307 294 302 304 301 298 299 298 299 304 303 303 301 302 300 297 300 296 297 301 300 298 299 299 292 287 283 287 289 286 290 292 289 280 282
309 309 306 305 305 306 307 308 308 309 309 310 308 298 299 291 294 298 301 300 299 298 302 303 300 300 298 292 296 295 298 298 299 299 298 296 288 290 290 291 291 289 289 289 288 288 283
308 308 305 305 306 306 309 308 308 308 310 309 306 304 300 295 299 299 298 299 299 300 300 299 297 300 299 295 296 294 296 295 294 296 296 297 285 286 286 291 291 287 290 290 289 290 289
308 306 305 305 305 308 309 307 307 308 309 310 310 310 303 297 295 295 297 299 301 302 302 303 301 297 294 298 299 299 299 300 299 296 295 292 285 281 280 286 286 280 288 290 290 291 290
308 306 306 305 308 309 308 307 307 308 311 319 315 310 300 291 296 297 303 302 301 301 299 303 302 297 302 305 299 297 295 297 299 298 298 288 285 280 276 277 272 289 294 294 291 293 294
306 306 309 309 308 308 307 306 306 307 308 313 313 310 299 287 299 301 301 301 302 302 301 301 303 303 303 299 287 285 284 286 289 296 297 294 283 279 274 277 281 289 293 291 289 288 295
305 307 309 308 307 307 306 306 306 307 309 312 311 313 302 293 294 306 300 301 296 295 296 300 306 307 301 287 283 280 279 283 285 290 294 293 286 280 280 272 270 283 294 297 295 282 296
305 308 308 308 307 307 307 307 307 307 308 313 310 314 309 298 303 304 299 299 302 297 295 298 299 298 297 281 283 278 283 290 283 282 280 281 278 276 271 271 280 289 295 296 282 283 296
307 307 307 307 307 306 306 306 306 307 307 313 310 313 309 299 302 308 308 302 303 299 292 298 295 293 288 283 280 284 278 284 284 288 285 282 279 278 278 271 275 294 294 287 290 295 296
307 306 307 307 308 306 306 306 306 307 307 312 308 314 314 306 304 309 309 309 308 306 302 299 295 296 294 288 286 288 280 286 283 281 292 284 286 283 285 284 292 295 295 295 298 296 295
Wind_Speed
10 10 9 12 12 11 13 14 14 13 14 13 14 14 14 13 13 10 9 10 9 8 6 6 7 8 4 1 10 9 6 9 9 8 6 6 5 7 6 6 6 6 4 6 6 8 3
9 10 9 11 12 11 11 13 14 14 14 13 13 13 13 12 12 10 8 9 8 7 5 5 6 6 1 4 6 5 6 7 6 6 5 8 8 9 7 6 8 5 7 6 6 5 3
11 10 10 10 11 11 10 12 12 14 12 12 13 12 11 11 10 8 7 8 7 5 4 5 4 3 2 13 3 8 8 6 7 6 4 4 6 2 2 4 5 9 6 3 1 2 2
12 12 11 10 10 11 10 9 13 13 11 12 11 11 11 9 8 8 7 7 6 5 5 5 3 2 8 6 4 9 2 5 4 6 1 2 2 2 5 0 7 5 6 3 3 4 1
13 12 10 10 9 11 10 9 11 11 9 9 9 9 8 7 6 7 6 6 6 6 6 2 3 3 9 11 1 6 0 2 4 3 4 3 6 3 9 6 6 7 3 5 3 6 3
14 12 10 10 9 9 9 9 10 9 8 8 8 8 5 5 6 6 7 4 3 4 4 5 5 2 6 4 3 1 3 3 2 3 7 8 7 5 6 6 2 4 4 2 6 3 2
14 13 10 9 9 8 9 8 8 8 7 7 6 3 5 7 8 8 5 3 2 2 3 8 4 4 4 1 2 1 4 4 3 6 2 6 6 3 4 5 5 4 2 6 3 2 4
14 12 10 9 7 9 8 7 7 7 6 6 3 1 6 8 8 8 1 2 4 3 4 9 9 8 9 2 1 2 3 2 2 3 3 7 2 3 4 6 6 4 8 4 5 6 5
14 12 11 8 8 8 7 6 7 6 6 3 2 3 7 8 10 4 2 7 3 2 2 2 6 5 2 4 2 1 3 1 3 3 2 7 5 1 5 7 8 5 7 3 4 2 5
15 13 11 8 8 8 6 5 6 7 6 3 2 4 9 11 3 3 3 6 5 4 5 3 1 1 3 3 3 1 2 2 4 7 7 5 6 6 5 5 1 2 3 3 3 3 4
15 14 11 8 8 8 5 4 6 7 5 1 1 4 10 4 1 3 4 7 5 6 5 4 1 3 1 2 4 3 2 4 2 3 7 2 5 7 5 0 1 4 1 1 1 3 3
17 13 11 9 7 8 3 3 5 6 4 1 2 6 10 3 2 6 6 4 6 9 2 4 4 5 2 1 2 2 2 7 2 7 7 5 2 3 1 3 1 2 1 6 5 3 4
17 14 12 9 7 8 1 2 5 6 2 1 4 8 8 1 3 4 3 5 7 5 2 4 4 5 4 2 2 4 5 7 4 5 4 5 4 6 4 4 6 8 6 4 5 6 5
16 14 12 9 8 6 1 3 4 4 2 1 1 10 9 3 2 3 4 6 2 4 4 3 6 4 4 4 6 3 4 4 6 5 4 4 4 4 6 2 1 4 5 6 4 3 4
16 14 12 10 8 4 3 4 5 3 3 2 4 1 2 3 2 4 7 4 6 3 2 7 6 6 3 2 6 7 4 2 1 2 5 5 1 2 0 2 2 3 4 4 7 3 4
16 14 12 10 8 5 4 4 4 0 4 6 4 2 3 2 2 6 6 5 3 3 2 5 6 5 4 6 4 5 2 2 1 4 2 3 5 1 2 5 6 6 2 5 5 2 1
16 14 12 10 7 6 4 4 3 3 7 7 4 4 4 3 5 6 4 5 1 3 5 4 1 4 6 7 6 3 2 3 5 4 5 2 5 5 4 3 0 5 3 5 5 4 5
15 14 11 10 8 7 3 5 2 5 8 5 4 3 4 4 5 1 2 5 2 3 5 4 3 4 5 4 5 4 4 2 6 2 3 2 6 3 1 3 1 2 3 4 6 2 2
15 13 11 10 8 6 3 4 4 5 7 5 5 3 3 6 4 2 5 3 2 2 1 1 2 4 3 4 7 3 4 2 7 4 2 3 2 4 7 7 6 4 2 5 6 4 5
14 13 11 10 8 6 3 3 5 5 8 4 4 3 4 4 1 6 2 1 3 3 2 4 4 6 5 5 6 5 3 3 4 3 2 2 3 5 7 4 3 1 2 4 5 4 4
15 13 12 9 8 6 2 4 5 4 8 3 2 5 7 4 3 3 4 5 3 2 2 3 4 3 5 3 4 4 3 2 4 3 2 4 4 2 3 5 2 0 2 2 5 5 6
14 13 12 9 8 6 3 5 5 4 9 4 3 4 2 3 6 5 5 6 8 3 4 0 3 3 5 4 6 8 7 3 4 2 2 4 0 3 1 5 6 3 4 4 4 3 3
14 14 12 8 8 4 4 5 5 3 3 3 2 1 6 3 5 5 4 6 9 8 1 4 11 9 10 3 6 5 4 6 6 6 2 3 4 4 4 4 5 6 6 3 1 3 4
14 14 12 8 7 6 5 5 6 5 2 2 1 3 5 2 4 6 3 3 5 3 8 3 5 7 4 6 3 7 11 11 10 8 4 5 5 3 3 4 1 5 3 4 7 3 8
14 14 10 8 7 6 6 6 5 4 3 3 2 4 4 2 2 2 2 10 8 7 6 5 5 3 8 6 6 6 7 8 5 6 7 4 6 4 4 3 6 2 5 6 6 5 7
15 13 10 8 7 7 7 8 8 9 8 5 1 1 5 7 4 2 5 8 7 4 6 4 5 4 9 5 5 5 5 5 3 2 5 6 7 6 3 5 7 6 3 6 5 5 9
15 11 10 9 7 7 8 9 10 11 11 4 2 2 5 5 3 2 4 7 7 5 5 2 1 4 5 3 4 4 4 5 5 7 4 3 3 5 3 2 10 7 4 4 6 10 8
13 12 10 9 7 7 8 10 10 12 11 4 0 2 4 4 3 4 3 5 4 3 7 5 6 5 4 5 4 4 3 6 3 5 7 8 8 4 3 2 10 7 5 8 8 4 7
14 12 10 9 8 7 8 10 11 11 11 2 3 3 2 6 4 1 2 2 2 5 8 1 6 4 6 6 2 3 2 1 2 4 3 3 10 8 11 10 6 7 7 5 8 7 7
Wind_Direction
228 245 258 271 276 279 289 295 297 296 290 284 278 273 266 261 261 260 254 258 263 272 285 305 299 324 334 238 251 256 158 105 123 155 208 188 184 202 211 209 141 136 158 86 103 96 93
219 230 247 267 273 278 289 294 298 292 287 283 276 271 265 256 255 245 244 253 258 267 278 283 298 326 252 264 240 312 165 137 192 199 208 178 210 210 219 238 145 152 124 139 115 130 116
219 231 247 262 272 277 280 292 293 290 288 281 274 265 251 239 236 233 235 245 252 260 264 268 293 275 271 237 259 333 210 200 177 188 224 198 202 110 139 54 139 136 92 49 135 159 140
212 228 247 258 270 277 278 280 296 289 285 279 274 256 240 230 225 220 228 240 245 247 255 259 243 253 250 252 271 281 13 327 343 190 27 336 318 45 103 161 28 86 59 86 284 140 317
209 227 238 255 267 276 282 286 286 284 274 277 269 253 232 220 216 215 215 223 226 228 226 213 174 215 272 313 266 268 78 352 307 350 346 23 52 56 28 65 19 15 187 208 267 204 121
207 227 235 250 261 276 283 283 286 288 286 284 270 250 217 196 192 185 194 199 152 226 213 201 253 304 273 253 217 246 313 51 41 360 6 30 44 53 29 65 204 255 241 209 173 194 148
205 218 230 245 261 275 279 284 295 302 294 279 264 248 190 181 180 171 155 145 76 73 212 194 198 236 267 259 59 347 291 14 34 56 53 360 62 140 220 182 198 229 108 122 131 190 138
201 214 224 240 260 265 277 292 306 305 295 282 304 253 181 173 164 157 123 164 212 201 299 228 247 261 277 171 69 277 45 61 75 193 84 24 110 233 334 38 46 87 92 19 3 8 86
202 206 219 221 252 264 276 302 307 318 287 284 255 204 162 145 137 130 176 237 269 341 179 292 190 207 237 61 84 7 73 38 218 70 149 145 205 357 88 43 68 31 104 111 169 317 54
203 203 209 214 244 260 276 304 319 315 281 259 230 205 154 139 187 174 246 277 285 119 72 281 10 270 1 103 24 296 72 160 3 142 117 94 358 95 86 72 122 83 171 152 129 89 167
199 200 201 210 233 255 276 310 328 305 271 237 246 213 160 145 276 166 288 318 9 60 74 215 203 200 189 143 158 310 253 36 30 141 92 221 67 66 70 288 93 204 283 89 77 104 83
193 195 194 203 223 247 270 342 323 304 270 45 236 203 137 267 241 245 310 7 51 47 196 184 142 160 120 32 190 185 20 35 71 74 55 94 129 75 262 304 279 309 359 36 51 64 43
186 189 187 192 216 236 239 21 329 300 272 343 254 189 173 195 230 306 6 49 45 128 158 150 161 151 134 147 106 77 72 40 67 78 52 47 14 332 29 33 14 39 55 10 18 14 210
182 182 177 181 214 222 136 59 340 297 66 335 110 138 233 228 288 11 55 52 186 183 181 197 120 118 108 129 13 52 61 43 4 52 123 129 348 357 326 95 218 6 107 144 164 176 266
179 178 167 175 210 191 96 51 347 304 103 181 144 229 315 265 304 69 74 76 213 230 173 133 93 106 119 86 126 80 63 114 27 28 133 128 154 296 26 322 119 313 51 158 105 14 67
174 166 166 170 198 135 100 53 348 282 133 168 112 77 279 226 77 62 75 226 234 21 29 101 149 152 154 183 119 101 120 323 338 15 161 177 111 262 310 28 7 99 171 42 5 88 95
169 156 166 169 170 126 114 64 351 110 150 177 69 75 266 52 63 50 153 242 270 61 74 89 176 185 177 186 152 72 53 15 13 338 51 74 99 283 46 28 116 9 22 57 104 109 149
159 157 160 167 149 124 113 65 63 122 154 100 108 95 293 54 65 39 181 212 313 49 26 30 93 59 106 113 66 84 122 40 337 346 50 20 115 83 142 282 288 127 126 107 109 224 57
155 148 163 153 141 117 93 70 82 145 192 132 123 137 337 86 135 290 282 268 93 80 292 55 66 68 66 117 95 76 94 16 35 53 74 9 37 65 354 351 347 87 55 87 97 77 191
144 149 157 143 132 112 81 71 83 164 194 102 103 92 343 47 207 152 221 230 95 31 34 73 116 69 69 63 45 125 102 38 40 60 356 69 81 147 178 194 181 174 65 142 117 117 190
138 148 149 140 124 104 34 62 85 183 194 97 113 218 177 198 277 196 163 175 140 111 3 76 31 112 138 111 81 101 89 89 21 19 46 85 115 87 69 46 50 200 205 233 189 195 160
141 141 147 138 122 93 0 57 71 149 162 86 136 142 27 181 141 176 145 202 173 188 135 181 146 38 88 112 174 186 134 155 179 159 59 20 190 51 33 23 13 302 288 231 226 227 204
136 146 140 136 112 83 52 47 57 109 189 122 292 17 110 289 113 94 214 184 203 136 1 58 131 96 76 114 103 91 72 100 135 134 104 75 111 79 256 8 357 352 220 222 196 66 224
142 142 135 131 118 79 50 50 49 49 138 96 242 107 89 265 124 181 212 134 135 154 132 78 83 100 158 160 95 39 40 49 54 37 89 112 89 77 202 30 29 245 304 203 144 67 113
141 136 136 125 98 70 44 32 45 41 96 123 46 120 117 122 226 5 113 115 79 48 58 75 6 135 138 60 64 46 352 20 5 33 27 87 113 93 132 191 299 306 188 164 165 233 175
136 135 123 108 91 68 43 27 26 33 31 98 112 142 100 114 275 304 105 145 134 104 24 21 17 68 67 78 75 130 193 198 214 133 47 69 78 113 136 136 215 238 216 131 85 277 182
135 128 115 105 89 66 41 29 20 29 24 100 62 55 89 104 287 28 142 167 119 96 106 97 85 56 58 76 91 149 227 178 172 176 199 49 9 151 140 212 286 239 207 114 102 238 168
123 119 113 105 90 67 45 31 20 23 20 72 196 5 113 107 336 17 27 123 94 114 136 205 54 344 44 70 119 201 164 224 135 181 179 165 149 194 105 92 280 188 119 172 206 163 158
121 120 114 105 93 69 50 35 20 17 14 58 72 337 62 86 164 352 92 40 6 171 129 125 157 160 168 91 153 125 199 152 143 226 122 223 187 181 182 211 238 215 195 193 163 156 172